PRISMA-Mango

operational
NORAD ID: 36599 Int'l Des: 2010-028 Owner: SSC Country: S
LEOCIRCULARRETROGRADESSO

About PRISMA-Mango

Description loading...

Live Position

Loading 3D Globe...

Upcoming Passes

Altitude History

Altitude vs Time

uPlot chart will show altitude changes over time

Two-Line Element Set

1 36599U 10028B 26062.52207679 .00000786 00000-0 17379-3 0 9998
2 36599 98.0266 265.6700 0052837 175.6996 184.4669 14.59042902833760
Epoch: Mar 3, 2026 • Age: 35 hours

Current Status

Altitude 664.2 km
Velocity 7.54 km/s
Sub-Earth Point -7.15°S, 121.64°E
Launch Date Jun 15, 2010
Age 15.7 years
Type other

Technical Details

Classification Payload
Mass 150.00 kg
Dry Mass 139.00 kg
Total Mass 150.00 kg
Length 1.30 m
Diameter 0.80 m
Span 3.00 m
Shape Box + 2 Pan
Manufacturer SSC
Bus Type Prisma
Phase Status In Orbit
Owner/State SSC/S

Large Constellations

Loading constellations...